Flag for U.S.A. Weather past 2 weeks in Urbana, Illinois, U.S.A.

Now
65 °F

Passing clouds.


Feels Like: 65 °F
Forecast: 63 / 83 °F
Wind: 6 mph from Southeast

Location: University Of Illinois-Willard Airport

Current Time: Aug 29, 2015 at 4:54:24 AM

Latest Report: Aug 29, 2015 at 3:53 AM


Visibility: 10 mi

Pressure: 30.03 "Hg

Humidity: 85%

Dew point: 60 °F

Location of UrbanaLocation

Historic Weather in Urbana — Graph

°F

Urbana temperature yesterday

Maximum temperature yesterday: 79 °F (at 12:53 PM)
Minimum temperature yesterday: 57 °F (at 4:53 AM)
Average temperature yesterday: 68 °F

Past Weeks' High & Low Weather Summary

 TemperatureHumidityPressure
High88 °F (Aug 15, 2:53 PM)97% (Aug 20, 3:53 AM)30.22 "Hg (Aug 20, 3:53 AM)
Low50 °F (Aug 25, 5:53 AM)37% (Aug 24, 3:53 PM)29.72 "Hg (Aug 19, 5:53 AM)
Average69 °F76%30.03 "Hg
* Reported Aug 14 2:53 AM — Aug 29 2:53 AM, Urbana, Weather by CustomWeather, © 2015

Note: Actual official high and low records may vary slightly from our data, if they occured in-between our weather recording intervals... More about our weather records

Advertising

Urbana weather history for previous 24 hours

 ConditionsComfort  
Time TempWeatherWind HumidityBarometerVisibility
2:53 AM
Sat, Aug 29
66 °FClear.5 mph81%30.04 "Hg10 mi
1:53 AM64 °FClear.5 mph87%30.05 "Hg10 mi
12:53 AM64 °FClear.5 mph87%30.06 "Hg10 mi
11:53 PM
Fri, Aug 28
63 °FClear.5 mph87%30.06 "Hg10 mi
10:53 PM64 °FClear.6 mph87%30.04 "Hg10 mi
9:53 PM65 °FClear.6 mph85%30.05 "Hg10 mi
8:53 PM67 °FClear.6 mph79%30.06 "Hg10 mi
7:53 PM68 °FSunny.5 mph78%30.05 "Hg10 mi
6:53 PM73 °FSunny.5 mph64%30.04 "Hg10 mi
5:53 PM77 °FSunny.6 mph52%30.06 "Hg10 mi
4:53 PM78 °FSunny.10 mph48%30.06 "Hg10 mi
3:53 PM79 °FPassing clouds.7 mph48%30.08 "Hg10 mi
2:53 PM79 °FPassing clouds.7 mph48%30.09 "Hg10 mi
1:53 PM79 °FScattered clouds.6 mph48%30.11 "Hg10 mi
12:53 PM79 °FPassing clouds.9 mph50%30.13 "Hg10 mi
11:53 AM77 °FSunny.6 mph56%30.15 "Hg10 mi
10:53 AM74 °FSunny.8 mph64%30.16 "Hg10 mi
9:53 AM70 °FSunny.5 mph73%30.15 "Hg10 mi
8:53 AM66 °FSunny.7 mph84%30.15 "Hg10 mi
7:53 AM62 °FSunny.3 mph90%30.15 "Hg7 mi
6:53 AM60 °FFog.5 mph93%30.13 "Hg6 mi
5:53 AM58 °FFog.3 mph93%30.12 "Hg5 mi
4:53 AM57 °FFog.5 mph96%30.11 "Hg5 mi
Weather by CustomWeather, © 2015

See weather overviewHow to use our weather pages